User: anonymous   Login
Location: Unspecified
(0.0000°N, 0.0000°E)
Time: 23:03:41
(UTC+02:00)
Language:

NOAA 12 - Orbit

View from above orbital plane
View from above orbital plane
View from above satellite
View from above satellite

Ground track
Ground track

The orbit data is extracted from the following two-line orbital elements,

1 21263U 91032A   17294.46983235 -.00000001  00000-0  17718-4 0  9992
2 21263  98.5561 315.5924 0012533 273.4732  86.5015 14.25852198374724
Epoch (UTC): 21 October 2017 11:16:33
Eccentricity: 0.0012533
inclination: 98.5561°
perigee height: 796 km
apogee height: 814 km
right ascension of ascending node: 315.5924°
argument of perigee: 273.4732°
revolutions per day: 14.25852198
mean anomaly at epoch: 86.5015°
orbit number at epoch: 37472

The dashed part of the orbit path shows where the satellite is in the earth's shadow,  

DLR